Location: Carrizo Plain National Monument
(35.0903°N, 119.7316°W)
Time: 17:09:59
(UTC-07:00)

BEESAT - Visible Passes

Search period start: 02 April 2020 00:00
Search period end: 12 April 2020 00:00
Orbit: 700 x 709 km, 98.6° (Epoch: 02 April)

Date Brightness Start Highest point End Pass type
(mag) Time Alt. Az. Time Alt. Az. Time Alt. Az.
02 Apr ? 04:56:49 10° ESE 04:59:44 16° ENE 05:02:38 10° NNE visible
02 Apr ? 20:14:54 10° NW 20:17:15 14° WNW 20:19:36 10° W visible
03 Apr ? 05:38:17 10° SE 05:42:47 45° ENE 05:47:17 10° N visible
04 Apr ? 04:46:59 10° E 04:48:55 12° ENE 04:50:52 10° NE visible
04 Apr ? 20:03:16 10° NNW 20:06:27 18° WNW 20:09:37 10° WSW visible
05 Apr ? 05:27:39 10° SE 05:31:54 34° ENE 05:36:09 10° N visible
06 Apr ? 06:10:25 10° S 06:15:09 82° WSW 06:19:55 10° NNW visible
06 Apr ? 19:51:53 10° NNW 19:55:37 23° WNW 19:59:20 10° WSW visible
07 Apr ? 05:17:08 10° SE 05:21:02 26° ENE 05:24:57 10° NNE visible
08 Apr ? 05:59:29 10° SSE 06:04:13 76° ENE 06:08:58 10° N visible
09 Apr ? 05:06:46 10° ESE 05:10:11 20° ENE 05:13:38 10° NNE visible
09 Apr ? 20:26:30 10° NW 20:27:42 11° WNW 20:28:54 10° WNW visible
10 Apr ? 05:48:40 10° SSE 05:53:18 56° ENE 05:57:57 10° N visible
11 Apr ? 04:56:36 10° E 04:59:22 16° ENE 05:02:08 10° NNE visible
11 Apr ? 20:14:22 10° NNW 20:16:54 14° WNW 20:19:26 10° W visible
